Date String (YYYY-MM-DD hh:mm:ss) UTC,Instrument flags,Ambient pressure (hPa),Sample flow (lpm),Bypass flow (lpm),Sample temperature (°C),Ambient temperature (°C),ASC tube jacket temperature (°C),LED temperature (°C),Box temperature (°C),Sample RH (%),Span deviation,Mass concentration (μg/m³),Mass concentration (μg/m³),Mass concentration (μg/m³)
DateTimeUTC,F1_M11,P_M11,Q1_M11,Q2_M11,T1_M11,T2_M11,T3_M11,T4_M11,T5_M11,U1_M11,ZSPAN_M11,X0_M11,X2_M11,X1_M11
2022-08-07 15:00:00,,0830.6,5.02,0.00,32.2,28.6,00.0,40.1,32.5,34.8,0001.2,0012.33,0006.90,0005.77
2022-08-07 15:01:00,,0830.6,4.99,0.00,32.1,28.0,00.0,40.1,32.4,34.8,0000.9,0012.36,0006.92,0005.79
2022-08-07 15:02:00,,0830.6,4.99,0.00,32.0,27.7,00.0,40.1,32.3,34.9,0000.6,0012.77,0006.99,0005.81
2022-08-07 15:03:00,,0830.5,5.02,0.00,31.9,27.7,00.0,40.0,32.2,35.4,0000.4,0013.56,0007.00,0005.82
2022-08-07 15:04:00,,0830.5,5.00,0.00,32.0,27.8,00.0,40.0,32.4,34.8,0000.6,0013.93,0006.99,0005.83
2022-08-07 15:05:00,,0830.6,4.99,0.00,32.1,28.0,00.0,40.0,32.5,34.6,0000.2,0014.00,0006.96,0005.85
2022-08-07 15:06:00,,0830.6,5.01,0.00,32.2,28.1,00.0,40.0,32.4,34.1,-000.1,0014.32,0006.93,0005.87
2022-08-07 15:07:00,,0830.6,5.00,0.00,32.2,28.3,00.0,40.0,32.4,33.9,-000.0,0014.03,0006.89,0005.87
2022-08-07 15:08:00,,0830.6,5.02,0.00,32.1,28.4,00.0,40.1,32.4,34.1,-000.3,0014.08,0006.83,0005.84
2022-08-07 15:09:00,,0830.6,4.99,0.00,32.1,28.6,00.0,40.1,32.4,34.2,0000.0,0014.22,0006.80,0005.80
2022-08-07 15:10:00,,0830.6,5.02,0.00,32.0,28.7,00.0,40.1,32.5,34.5,0000.0,0013.88,0006.76,0005.78
2022-08-07 15:11:00,,0830.6,4.99,0.00,32.0,28.8,00.0,40.1,32.5,34.6,0000.0,0013.87,0006.75,0005.77
2022-08-07 15:12:00,,0830.6,5.01,0.00,32.0,28.9,00.0,40.1,32.5,34.8,0000.1,0013.85,0006.73,0005.76
2022-08-07 15:13:00,,0830.7,5.00,0.00,31.9,29.0,00.0,40.2,32.6,34.8,0000.9,0013.46,0006.67,0005.76
2022-08-07 15:14:00,,0830.7,5.00,0.00,31.9,28.8,00.0,40.1,32.5,34.9,0001.1,0012.72,0006.68,0005.75
2022-08-07 15:15:00,,0830.8,5.00,0.00,31.9,28.3,00.0,40.1,32.4,34.5,0000.7,0012.17,0006.68,0005.75
2022-08-07 15:16:00,,0830.8,5.00,0.00,31.9,27.9,00.0,40.1,32.4,34.0,0000.3,0012.24,0006.71,0005.77
2022-08-07 15:17:00,,0830.7,5.00,0.00,31.8,27.8,00.0,40.0,32.2,34.6,0000.1,0011.55,0006.76,0005.80
2022-08-07 15:18:00,,0830.8,5.01,0.00,31.6,27.9,00.0,40.0,32.2,34.8,0000.3,0011.54,0006.84,0005.85
2022-08-07 15:19:00,,0830.8,4.99,0.00,31.5,28.0,00.0,40.0,32.2,34.9,0000.5,0011.71,0006.93,0005.91
2022-08-07 15:20:00,,0830.8,5.02,0.00,31.6,28.1,00.0,40.0,32.3,35.2,0000.1,0011.66,0006.97,0005.96
2022-08-07 15:21:00,,0830.7,4.99,0.00,31.7,28.3,00.0,39.9,32.4,34.7,0000.1,0011.89,0006.99,0005.97
2022-08-07 15:22:00,,0830.8,5.00,0.00,31.8,28.4,00.0,39.9,32.4,34.7,-000.1,0012.07,0006.98,0005.99
2022-08-07 15:23:00,,0830.7,5.01,0.00,31.8,28.5,00.0,39.9,32.4,35.2,-000.6,0012.46,0006.98,0005.99
2022-08-07 15:24:00,,0830.8,5.00,0.00,31.9,28.7,00.0,39.9,32.5,34.7,-000.9,0012.91,0006.98,0006.00
2022-08-07 15:25:00,,0830.8,5.00,0.00,32.0,28.8,00.0,40.0,32.6,34.7,-001.2,0013.65,0006.96,0006.01
2022-08-07 15:26:00,,0830.8,5.00,0.00,32.1,28.8,00.0,40.0,32.6,34.7,-001.3,0014.31,0006.93,0006.01
2022-08-07 15:27:00,,0830.8,5.00,0.00,32.1,28.3,00.0,40.0,32.4,34.1,-000.7,0015.20,0006.93,0006.03
2022-08-07 15:28:00,,0830.8,5.00,0.00,32.0,27.8,00.0,40.0,32.3,34.5,-000.4,0015.31,0006.93,0006.04
2022-08-07 15:29:00,,0830.7,5.00,0.00,31.9,27.7,00.0,40.0,32.2,34.7,-000.5,0015.71,0006.91,0006.03
2022-08-07 15:30:00,,0830.6,4.99,0.00,31.8,27.7,00.0,40.0,32.2,35.3,-000.8,0016.10,0006.93,0006.04
2022-08-07 15:31:00,,0830.7,5.02,0.00,31.9,27.9,00.0,40.0,32.3,35.1,-000.7,0016.51,0006.97,0006.06
2022-08-07 15:32:00,,0830.8,4.98,0.00,32.1,28.0,00.0,39.9,32.5,34.4,-000.7,0016.50,0007.00,0006.07
2022-08-07 15:33:00,,0830.8,5.01,0.00,32.2,28.2,00.0,39.9,32.5,34.1,-000.8,0016.92,0006.98,0006.05
2022-08-07 15:34:00,,0830.8,4.99,0.00,32.2,28.3,00.0,40.0,32.5,34.0,-000.8,0017.04,0007.04,0006.08
2022-08-07 15:35:00,,0830.7,5.00,0.00,32.2,28.5,00.0,40.0,32.5,34.6,-000.7,0017.19,0007.10,0006.10
2022-08-07 15:36:00,,0830.7,5.01,0.00,32.2,28.6,00.0,40.1,32.5,35.0,-000.2,0016.82,0007.15,0006.12
2022-08-07 15:37:00,,0830.8,4.99,0.00,32.4,28.7,00.0,40.1,32.6,34.7,0000.1,0016.43,0007.22,0006.16
2022-08-07 15:38:00,,0830.8,5.01,0.00,32.4,28.8,00.0,40.1,32.7,34.7,-000.1,0016.23,0007.26,0006.17
2022-08-07 15:39:00,,0830.8,5.01,0.00,32.5,28.7,00.0,40.2,32.6,35.0,-000.4,0016.10,0007.26,0006.19
2022-08-07 15:40:00,,0830.7,4.98,0.00,32.5,28.2,00.0,40.2,32.5,34.7,-000.8,0016.53,0007.26,0006.21
2022-08-07 15:41:00,,0830.8,5.00,0.00,32.5,27.8,00.0,40.2,32.4,34.5,-000.5,0016.04,0007.29,0006.22
2022-08-07 15:42:00,,0830.7,5.02,0.00,32.4,27.7,00.0,40.2,32.3,35.0,-000.5,0015.84,0007.32,0006.24
2022-08-07 15:43:00,,0830.7,5.00,0.00,32.4,27.8,00.0,40.2,32.4,35.2,-000.7,0015.92,0007.39,0006.31
2022-08-07 15:44:00,,0830.8,4.99,0.00,32.5,27.9,00.0,40.2,32.5,34.4,-000.3,0015.95,0007.50,0006.38
2022-08-07 15:45:00,,0830.7,5.00,0.00,32.6,28.1,00.0,40.2,32.5,34.3,-000.2,0015.63,0007.58,0006.42
2022-08-07 15:46:00,,0830.8,5.01,0.00,32.6,28.2,00.0,40.2,32.5,33.9,-000.3,0015.05,0007.57,0006.45
2022-08-07 15:47:00,,0830.8,4.99,0.00,32.5,28.4,00.0,40.3,32.5,33.9,-000.4,0015.24,0007.60,0006.50
2022-08-07 15:48:00,,0830.8,4.99,0.00,32.5,28.5,00.0,40.3,32.5,33.9,-000.4,0015.54,0007.71,0006.55
2022-08-07 15:49:00,,0830.7,5.01,0.00,32.4,28.6,00.0,40.3,32.6,34.2,-000.4,0015.14,0007.77,0006.60
2022-08-07 15:50:00,,0830.7,4.99,0.00,32.4,28.7,00.0,40.4,32.6,34.6,-000.5,0015.34,0007.85,0006.65
2022-08-07 15:51:00,,0830.9,5.00,0.00,32.4,28.5,00.0,40.3,32.5,34.3,-000.0,0014.59,0007.94,0006.71
2022-08-07 15:52:00,,0830.9,5.00,0.00,32.3,28.0,00.0,40.3,32.4,34.2,0000.0,0014.64,0008.01,0006.80
2022-08-07 15:53:00,,0830.8,5.00,0.00,32.2,27.7,00.0,40.3,32.4,35.2,0000.0,0014.97,0008.04,0006.84
2022-08-07 15:54:00,,0830.8,5.00,0.00,32.2,27.6,00.0,40.3,32.4,35.2,-000.2,0015.25,0008.07,0006.89
2022-08-07 15:55:00,,0830.9,5.00,0.00,32.4,27.7,00.0,40.2,32.5,35.0,-000.4,0014.97,0008.11,0006.93
2022-08-07 15:56:00,,0830.9,4.98,0.00,32.5,27.9,00.0,40.2,32.5,34.8,-000.1,0016.09,0008.08,0006.94
2022-08-07 15:57:00,,0830.9,5.01,0.00,32.6,28.0,00.0,40.2,32.6,34.6,0000.1,0016.78,0008.13,0006.95
2022-08-07 15:58:00,,0830.9,4.99,0.00,32.6,28.2,00.0,40.2,32.6,34.3,-000.1,0016.73,0008.16,0006.95
2022-08-07 15:59:00,,0831.0,5.01,0.00,32.6,28.4,00.0,40.3,32.5,34.0,-000.3,0016.70,0008.13,0006.95
